Location: Colonial Hills
(40.5656°N, 77.6119°W)
Time: 20:10:20
(UTC+00:00)

Envisat - Visible Passes

Search period start: 25 November 2020 00:00
Search period end: 05 December 2020 00:00
Orbit: 764 x 766 km, 98.1° (Epoch: 25 November)

Date Brightness Start Highest point End Pass type
(mag) Time Alt. Az. Time Alt. Az. Time Alt. Az.
25 Nov 3.9 10:45:25 10° NNE 10:50:23 52° E 10:55:19 10° S visible
25 Nov 6.1 23:41:17 10° WSW 23:43:53 14° W 23:46:30 10° WNW visible
26 Nov 5.4 10:09:21 10° NE 10:13:22 23° E 10:17:22 10° SE visible
26 Nov 5.0 23:02:16 10° SSW 23:06:45 31° W 23:11:16 10° NNW visible
27 Nov 3.0 11:10:43 10° NNE 11:15:50 89° WNW 11:20:55 10° SSW visible
27 Nov 3.4 22:24:45 10° S 22:29:49 72° WSW 22:34:54 10° NNW visible
28 Nov 4.4 10:34:10 10° NNE 10:38:57 41° E 10:43:43 10° SSE visible
28 Nov 5.9 23:28:58 10° SW 23:32:23 18° W 23:35:48 10° NW visible
29 Nov 5.8 09:58:24 10° NE 10:01:53 18° E 10:05:21 10° SE visible
29 Nov 3.2 11:36:16 10° N 11:41:11 51° WNW 11:46:04 10° SSW visible
29 Nov 4.5 22:50:34 10° SSW 22:55:18 40° W 23:00:05 10° NNW visible
30 Nov 3.3 10:59:21 10° NNE 11:04:27 73° ESE 11:09:30 10° S visible
30 Nov 3.1 22:13:20 10° SSE 22:18:25 90° E 22:23:33 10° NNW visible
01 Dec 4.9 10:22:58 10° NNE 10:27:31 32° E 10:32:01 10° SSE visible
01 Dec 5.5 23:16:55 10° SW 23:20:53 23° W 23:24:52 10° NW visible
02 Dec 6.1 09:47:41 10° ENE 09:50:23 14° E 09:53:04 10° ESE visible
02 Dec 3.0 11:24:47 10° N 11:29:50 65° WNW 11:34:50 10° SSW visible
02 Dec 4.0 22:38:57 10° S 22:43:52 51° W 22:48:50 10° NNW visible
03 Dec 3.7 10:48:01 10° NNE 10:53:02 57° E 10:58:01 10° S visible
03 Dec 6.2 23:44:22 10° WSW 23:46:34 13° W 23:48:47 10° WNW visible
04 Dec 5.3 10:11:51 10° NE 10:16:03 25° E 10:20:12 10° SSE visible
04 Dec 5.1 23:05:03 10° SSW 23:09:25 29° W 23:13:49 10° NW visible
